Location: Newark
(33.9035°S, 18.4112°E)
Time: 15:25:54
(UTC+00:00)

STARLINK-1080 - Pass Details

Date: 22 January 2020
Orbit: 348 x 351 km, 53.0° (Epoch: 18 February)

Event Time Altitude Azimuth Distance (km) Brightness Sun altitude
Exits shadow 01:47:19 26° 95° (E) 741 4.7 -22.8°
Drops below altitude 10° 01:49:02 10° 119° (ESE) 1,336 6.6 -22.5°
Enters shadow 02:42:32 -73° 315° (NW) 12,550 10.5 -14.2°
